Regional Weather Roundup
Issued by NWS

Home | Current Version | Previous Version | Graphics & Text | Print | Product List | Glossary On
Versions: 1 2 3 4 5 6 7 8 9 10 11 12 13 14 15 16 17 18 19 20 21 22 23 24 25 26 27 28 29 30 31 32 33 34 35 36 37 38 39 40 41 42 43 44 45 46 47
000
ASUS45 KPSR 241910
RWRAZ

ARIZONA HOURLY REGIONAL WEATHER ROUNDUP
NATIONAL WEATHER SERVICE PHOENIX AZ
1200 PM MST SAT JUN 24 2017

NOTE: FAIR INDICATES FEW OR NO CLOUDS BELOW 12,000 FEET WITH NO
SIGNIFICANT WEATHER AND/OR OBSTRUCTIONS TO VISIBILITY.

AZZ001>003-036-242000-
NORTHWEST ARIZONA

CITY           SKY/WX    TMP DP  RH WIND       PRES   REMARKS
BULLHEAD CITY  SUNNY    111  25   5 N20G26    29.72F HX 102
KINGMAN        SUNNY    106  39  10 NE8       29.97F HX 100
$$

AZZ004>008-015-016-018-242000-
NORTH CENTRAL ARIZONA

CITY           SKY/WX    TMP DP  RH WIND       PRES   REMARKS
GRAND CANYON   SUNNY     92  20   7 NE9G17    30.27F
PRESCOTT       SUNNY     98  23   7 S8        30.11F
FLAGSTAFF      SUNNY     88  20   8 VRB3      30.28F
PAYSON         MOSUNNY   95  34  11 VRB6      30.15F
PAGE           SUNNY     95  20   6 MISG      30.08F
$$

AZZ009>014-017-242000-
NORTHEAST ARIZONA

CITY           SKY/WX    TMP DP  RH WIND       PRES   REMARKS
WINSLOW        SUNNY     97  38  13 VRB3      30.12F
SAINT JOHNS    SUNNY     96  30   9 N5        30.15F
WINDOW ROCK    SUNNY     92  27   9 MISG      30.26F
SHOW LOW       SUNNY     90  32  12 W8        30.24F
$$

AZZ540-542>544-546-548-242000-
GREATER PHOENIX AREA

CITY           SKY/WX    TMP DP  RH WIND       PRES   REMARKS
PHOENIX        MOSUNNY  107  46  13 S5        29.75F HX 103
BUCKEYE          N/A    104  46  14 S7        29.77F HX 100
GLENDALE       MOSUNNY  108  48  13 VRB5      29.78F HX 104
LUKE AFB       SUNNY    106  48  14 S5        29.75F HX 103
DEER VALLEY    SUNNY    104  45  13 S6        29.79F HX 100
SCOTTSDALE     SUNNY    105  44  12 S5        29.81F HX 100
MESA-FALCON    SUNNY    106  50  15 SW6       29.79F HX 103
MESA-GATEWAY   MOSUNNY  106  45  12 CALM      29.79F HX 101
CHANDLER       SUNNY    108  45  12 SW7       29.78F HX 103
$$

AZZ539-553-242000-
SOUTHWEST MARICOPA COUNTY AND PINAL COUNTY

CITY           SKY/WX    TMP DP  RH WIND       PRES   REMARKS
CASA GRANDE      N/A    N/A N/A N/A MISG        N/A
GILA BEND      MOSUNNY  107  45  12 W7        29.75S HX 102
$$

AZZ503-504-507>509-242000-
SOUTHEAST ARIZONA

CITY           SKY/WX    TMP DP  RH WIND       PRES   REMARKS
TUCSON         SUNNY    107  38   9 W9        29.91F HX 101
DAVIS-MONTHAN  MOSUNNY  103  36  10 W7        29.90F
RYAN FIELD     SUNNY    106  37   9 CALM      29.89F HX 100
NOGALES        SUNNY    105  33   8 NW10      29.99F
SIERRA VISTA   CLOUDY    97  33  10 CALM      30.09F
DOUGLAS        SUNNY    101  36  10 VRB5      30.02F
SAFFORD        SUNNY    101  50  18 VRB6      29.93F
$$

AZZ532-242000-
SOUTHWEST ARIZONA

CITY           SKY/WX    TMP DP  RH WIND       PRES   REMARKS
YUMA           MOSUNNY  103  56  21 S8        29.72  HX 102
$$

CAZ041-043-047-048-061-525>527-560>570-242000-
SOUTHERN CALIFORNIA

CITY           SKY/WX    TMP DP  RH WIND       PRES   REMARKS
DOWNTOWN L.A.  MOSUNNY   72  60  66 VRB3      29.90R
L.A. AIRPORT   CLOUDY    65  60  84 W8        29.92S
SAN DIEGO      MOSUNNY   71  61  70 W10       29.93S
BURBANK        MOSUNNY   75  59  57 S6        29.90R
ONTARIO        MOSUNNY   85  59  41 SW10      29.89S
RIVERSIDE      SUNNY     85  62  46 W7        29.88F
PALM SPRINGS   SUNNY    111  47  12 VRB3      29.73F HX 107
EL CENTRO NAS  SUNNY    105  59  22 VRB3      29.71F HX 105
IMPERIAL       SUNNY    103  66  30 W3        29.69F HX 107
BLYTHE         SUNNY    110  44  11 NW5       29.71F HX 105
NEEDLES        SUNNY    114  24   4 VRB7      29.75F HX 105
$$

NVZ020-UTZ003-242000-
SOUTHERN NEVADA-UTAH

CITY           SKY/WX    TMP DP  RH WIND       PRES   REMARKS
LAS VEGAS      MOSUNNY  108  11   3 VRB7      29.89F
SALT LAKE CITY SUNNY     84  38  19 VRB3      30.20F
$$

NMZ009-TXZ055-242000-
NEW MEXICO-WEST TEXAS

CITY           SKY/WX    TMP DP  RH WIND       PRES   REMARKS
ALBUQUERQUE    CLOUDY    83  53  35 S8        30.23F
EL PASO        MOSUNNY   91  53  27 SE15G33   30.12S
$$


........................KEY........................
SKY/WX - SKY CONDITION/WEATHER
TMP    - TEMPERATURE IN FAHRENHEIT
DP     - DEW POINT IN FAHRENHEIT
RH     - RELATIVE HUMIDITY IN PERCENT
WIND   - DIRECTION AND SPEED IN MILES PER HOUR (MPH)
VRB    - VARIABLE WIND DIRECTION
PRES   - MEAN SEA LEVEL PRESSURE IN INCHES OF MERCURY
         F - FALLING PRESSURE   R - RISING PRESSURE
         S - STEADY PRESSURE
VSB    - VISIBILITY IN MILES
HX     - HEAT INDEX IN FAHRENHEIT
WCI    - WIND CHILL INDEX IN FAHRENHEIT
TC     - TEMPERATURE IN CELSIUS WHICH IS ALSO KNOWN AS
         TEMPERATURE IN CENTIGRADE
AFB    - AIR FORCE BASE
         LUKE AFB IS LUKE AIR FORCE BASE
         DAVIS-MONTHAN IS DAVIS-MONTHAN AIR FORCE BASE
NAS    - NAVAL AIR STATION
         EL CENTRO NAS IS EL CENTRO NAVAL AIR STATION
N/A    - NOT AVAILABLE





USA.gov is the U.S. government's official web portal to all federal, state and local government web resources and services.